Total_Precipitation_Accumulation
1.36 1.63 1.28 1.85 1.52 1.33 1.21 1.46 1.21 0.64 0.69 0.71 0.49 0.40 0.17 0.26 0.38 0.33 0.17 0.54 0.37 0.42 0.26 0.26 0.51 0.50 0.30 0.24 0.36 0.49 0.46 0.43 0.96 0.89 0.68 0.58 0.72 0.47 0.81 0.45 0.33 0.33
1.32 1.98 1.94 1.87 1.54 1.37 1.29 1.11 1.14 0.97 0.69 0.58 0.33 0.32 0.20 0.10 0.08 0.10 0.22 0.17 0.26 0.19 0.24 0.33 0.61 0.63 0.54 0.30 0.41 0.38 0.31 0.46 0.59 1.13 1.04 0.52 0.46 0.80 0.59 0.34 0.53 0.19
1.57 1.43 1.91 1.99 2.00 1.77 1.32 1.62 1.29 1.01 0.71 0.43 0.49 0.48 0.35 0.15 0.11 0.08 0.14 0.19 0.14 0.15 0.34 0.27 0.31 0.41 0.25 0.36 0.34 0.41 0.24 0.33 0.39 0.49 0.41 0.45 0.73 0.51 0.56 0.54 0.52 0.38
1.58 1.72 1.75 2.20 2.00 1.61 1.81 1.47 1.18 0.79 0.72 0.92 0.45 0.36 0.18 0.25 0.19 0.13 0.25 0.16 0.22 0.24 0.20 0.34 0.38 0.28 0.22 0.17 0.36 0.44 0.37 0.39 0.44 0.44 0.61 0.67 0.55 0.54 0.88 0.59 0.29 0.30
1.51 1.48 1.26 1.51 1.57 1.80 1.55 1.18 0.90 0.70 0.62 0.58 0.42 0.31 0.24 0.22 0.25 0.33 0.31 0.18 0.30 0.62 0.58 0.27 0.26 0.28 0.44 0.37 0.55 0.64 0.54 0.47 0.44 0.56 0.75 0.64 0.41 0.51 0.84 0.74 0.71 0.76
1.37 1.52 1.40 1.45 1.58 1.58 1.41 0.93 0.83 1.00 0.60 0.56 0.37 0.32 0.27 0.27 0.39 0.71 1.30 0.78 0.95 0.69 0.64 0.37 0.50 0.64 0.96 0.89 0.72 0.69 0.52 0.42 0.51 0.58 0.48 0.48 0.51 0.64 0.78 0.75 0.57 0.45
1.36 1.65 1.49 1.24 1.41 1.23 1.32 0.96 1.11 0.79 0.62 0.59 1.20 0.42 0.54 0.73 0.60 0.87 0.90 0.93 0.63 0.50 0.49 0.47 0.95 0.73 0.68 0.58 0.77 1.00 0.65 0.37 0.40 0.71 0.70 0.54 0.45 0.44 0.42 0.45 0.29 0.33
1.33 1.61 1.99 1.93 1.76 1.63 1.21 1.04 0.91 0.89 0.78 0.80 0.65 0.94 1.12 0.71 0.43 0.26 0.41 0.48 0.66 0.60 0.61 1.15 1.02 0.82 0.98 0.68 0.79 1.00 0.86 0.52 0.44 0.61 0.56 0.37 0.37 0.32 0.35 0.34 0.28 0.17
3.52 2.60 2.15 2.31 1.96 1.33 1.01 1.07 1.00 1.15 0.80 0.83 1.08 0.98 0.90 0.52 0.47 0.48 0.26 0.45 0.67 1.39 0.80 0.55 0.77 1.05 0.78 1.10 0.86 0.80 0.63 0.41 0.71 0.70 0.63 0.35 0.37 0.51 0.36 0.60 0.61 0.53
2.23 2.07 2.34 3.26 2.37 1.82 1.53 1.65 1.27 1.44 1.17 1.13 1.49 1.00 0.51 0.28 0.43 0.54 0.65 1.12 1.21 0.80 0.63 0.81 1.32 1.06 1.27 1.02 0.78 0.95 0.80 0.49 0.87 0.89 0.54 0.50 0.32 0.48 0.71 1.10 1.07 0.68
3.04 3.15 3.35 2.95 1.84 1.60 1.47 1.89 1.43 1.69 1.40 0.97 0.78 0.85 1.68 1.16 1.10 1.31 1.38 0.89 0.61 0.57 1.00 0.79 0.73 0.97 0.81 1.27 1.20 0.89 0.91 1.25 1.26 0.95 0.63 0.35 0.48 0.48 0.67 1.02 0.95 0.72
2.61 2.48 2.19 1.88 1.61 1.34 1.37 1.71 1.63 1.90 1.46 1.34 1.10 1.16 1.31 1.23 1.74 1.71 1.57 1.29 0.91 1.16 1.26 1.20 1.26 1.29 1.14 1.54 1.31 1.56 1.34 1.59 1.38 1.66 0.63 0.87 0.60 1.20 1.42 2.03 1.62 0.82
3.22 2.68 2.81 2.08 1.53 2.05 2.15 2.44 1.78 1.75 1.85 1.69 1.74 1.57 1.46 1.48 1.88 1.56 1.36 1.28 1.25 1.12 1.21 1.09 1.23 1.50 2.06 2.78 2.52 1.89 2.37 1.52 1.52 1.49 1.39 1.13 1.51 1.66 1.45 2.31 2.18 1.81
2.41 2.75 3.54 2.79 2.68 3.74 2.76 2.15 2.76 2.04 2.24 2.30 2.87 2.59 1.75 1.45 1.38 1.20 1.16 1.28 1.39 1.90 1.70 1.70 2.28 1.86 1.78 2.35 2.27 2.43 2.14 1.91 1.79 1.40 2.43 1.88 1.18 1.34 1.37 1.62 2.31 2.14
4.00 3.97 3.40 3.68 3.06 3.75 3.60 2.66 2.90 3.71 3.05 3.46 2.32 2.34 2.71 2.01 1.93 1.50 1.35 1.09 0.89 0.98 1.43 1.17 1.72 1.48 1.44 2.08 1.71 1.80 2.68 2.05 1.34 1.84 1.81 1.63 1.80 1.28 1.41 2.60 3.16 2.28
3.80 3.67 3.92 4.24 3.76 4.26 4.79 3.36 3.16 3.98 4.30 3.26 2.33 2.28 2.04 2.02 1.74 1.56 1.54 1.21 1.55 1.71 1.29 1.57 1.48 1.59 1.15 1.48 1.23 1.70 2.02 1.85 1.78 1.52 1.93 2.09 2.06 1.81 1.85 2.57 2.29 2.25
4.81 4.15 3.64 4.20 3.93 3.85 4.58 3.95 3.26 2.96 2.86 2.74 1.92 1.50 1.58 1.57 1.79 1.66 1.30 2.22 1.57 1.90 2.12 2.07 1.69 1.49 0.94 1.27 1.17 1.20 2.08 2.43 1.65 1.69 1.92 2.07 1.41 1.27 2.27 2.18 1.69 1.97
3.48 4.39 3.78 3.23 3.65 4.89 4.39 3.57 3.25 2.46 2.40 2.49 1.62 1.66 1.44 1.37 1.38 1.20 0.98 1.34 1.40 2.12 1.96 1.70 1.61 1.46 1.50 1.59 1.18 1.17 1.01 1.64 1.48 1.24 1.78 2.04 1.57 1.37 1.41 1.63 2.02 1.75
4.16 4.88 4.02 3.34 4.09 4.94 4.64 4.42 2.95 2.83 2.58 2.47 1.66 1.82 1.87 1.33 1.22 1.47 1.29 1.22 1.34 1.70 1.42 1.03 1.17 2.24 1.48 0.91 0.63 0.68 0.53 0.89 1.48 1.80 1.56 1.40 1.63 1.58 1.68 1.64 2.19 2.09
3.87 3.66 3.51 3.68 4.07 5.11 4.75 3.04 3.18 2.19 2.39 3.56 2.34 1.84 1.66 1.40 1.50 1.53 1.12 1.26 0.98 1.11 1.28 1.73 1.69 1.59 0.69 0.39 0.28 0.28 0.29 0.50 1.19 1.72 1.78 1.28 1.74 2.50 2.71 2.44 3.14 2.59
4.30 4.24 4.24 4.47 5.05 4.68 3.73 4.39 3.14 3.55 3.90 4.41 3.99 3.80 2.70 2.04 1.70 1.41 1.50 1.32 1.40 1.69 1.66 1.46 1.87 1.20 0.48 0.24 0.19 0.21 0.22 0.33 0.60 1.45 1.66 1.30 1.56 1.60 2.02 2.67 2.98 3.43
3.83 4.20 4.98 5.94 5.89 5.46 4.49 4.58 4.36 4.21 4.71 4.68 3.80 3.23 2.78 2.03 1.93 1.58 1.56 1.83 1.87 1.49 1.31 1.39 1.32 0.97 0.32 0.27 0.24 0.22 0.23 0.48 0.87 1.13 1.09 1.05 1.58 2.44 2.41 3.12 3.08 3.17
4.16 5.14 4.66 4.62 4.66 5.34 5.30 5.22 5.38 5.63 4.91 4.80 3.61 3.09 2.67 1.90 2.51 2.04 1.50 2.32 1.92 1.59 1.52 1.74 1.45 1.06 0.52 0.60 0.54 0.74 1.34 0.75 0.70 1.15 1.30 1.44 1.78 2.13 2.13 3.18 3.12 2.69
5.46 5.34 5.72 5.72 4.81 4.77 4.52 5.29 5.63 5.42 5.34 5.35 4.70 4.58 5.36 5.17 3.89 3.11 4.15 3.95 3.07 1.86 1.50 1.74 1.49 1.42 1.34 1.27 1.67 0.99 1.24 0.72 1.20 1.85 2.00 2.15 2.38 2.94 2.90 2.59 2.33 2.82
4.33 4.84 5.04 5.59 5.48 4.83 5.52 6.05 5.32 5.00 4.51 4.56 5.49 4.79 5.63 6.18 4.68 4.43 6.07 5.08 4.18 3.24 1.73 1.70 1.25 1.40 1.16 1.22 1.93 1.68 1.62 1.88 1.86 2.39 2.61 2.93 2.77 3.68 4.19 2.45 3.19 2.76
4.19 4.74 3.98 4.86 4.61 5.13 6.51 6.07 6.51 6.81 6.03 4.86 5.30 6.59 6.75 4.82 5.28 6.27 5.88 4.46 3.31 2.75 2.81 2.37 2.18 1.98 2.49 1.35 1.58 1.99 1.42 3.34 4.31 2.90 2.40 2.89 3.60 3.21 3.19 3.02 3.30 2.46